| time (UTC) | temp F | wind direction | speed MPH | gust MPH | rain 1hr in | rain 24hr in | rain mn in | humidity % | barometer mb |
| 20260503210609 | 54 | 285 | 5.0 | 8.0 | 0.00 | 0.00 | 0.00 | 82 | 1025.0 |
| 20260503205600 | 54 | 304 | 5.0 | 8.0 | 0.00 | 0.00 | 0.00 | 80 | 1024.8 |
| 20260503204550 | 55 | 288 | 5.0 | 7.0 | 0.00 | 0.00 | 0.00 | 77 | 1024.7 |
| 20260503203540 | 55 | 286 | 3.0 | 4.0 | 0.00 | 0.00 | 0.00 | 73 | 1024.6 |
| 20260503202530 | 54 | 301 | 3.0 | 6.0 | 0.00 | 0.00 | 0.00 | 75 | 1024.6 |
| 20260503201519 | 55 | 299 | 3.0 | 6.0 | 0.00 | 0.00 | 0.00 | 80 | 1024.5 |
| 20260503200630 | 55 | 300 | 4.0 | 6.0 | 0.00 | 0.00 | 0.00 | 79 | 1024.7 |
| 20260503195601 | 55 | 276 | 5.0 | 7.0 | 0.00 | 0.00 | 0.00 | 78 | 1024.5 |
| 20260503194551 | 55 | 291 | 4.0 | 7.0 | 0.00 | 0.00 | 0.00 | 76 | 1024.5 |
| 20260503193541 | 56 | 329 | 4.0 | 7.0 | 0.00 | 0.00 | 0.00 | 74 | 1024.5 |
| 20260503192531 | 56 | 304 | 4.0 | 7.0 | 0.00 | 0.00 | 0.00 | 74 | 1024.3 |
| 20260503191541 | 56 | 302 | 5.0 | 8.0 | 0.00 | 0.00 | 0.00 | 76 | 1024.2 |
| 20260503190611 | 56 | 295 | 6.0 | 9.0 | 0.00 | 0.00 | 0.00 | 77 | 1024.2 |
| 20260503185602 | 56 | 299 | 5.0 | 9.0 | 0.00 | 0.00 | 0.00 | 76 | 1024.2 |
| 20260503184552 | 57 | 264 | 6.0 | 9.0 | 0.00 | 0.00 | 0.00 | 74 | 1024.2 |
| 20260503183542 | 58 | 303 | 7.0 | 10.0 | 0.00 | 0.00 | 0.00 | 71 | 1024.0 |
| 20260503182532 | 59 | 319 | 7.0 | 11.0 | 0.00 | 0.00 | 0.00 | 69 | 1023.8 |
| 20260503181522 | 59 | 310 | 5.0 | 9.0 | 0.00 | 0.00 | 0.00 | 68 | 1023.7 |
| 20260503180613 | 60 | 289 | 6.0 | 10.0 | 0.00 | 0.00 | 0.00 | 67 | 1023.7 |
| 20260503175603 | 60 | 296 | 6.0 | 9.0 | 0.00 | 0.00 | 0.00 | 66 | 1023.5 |
| 20260503174553 | 61 | 302 | 5.0 | 8.0 | 0.00 | 0.00 | 0.00 | 65 | 1023.5 |
| 20260503173543 | 61 | 269 | 4.0 | 6.0 | 0.00 | 0.00 | 0.00 | 63 | 1023.5 |
| 20260503172532 | 62 | 292 | 5.0 | 9.0 | 0.00 | 0.00 | 0.00 | 61 | 1023.3 |
| 20260503171523 | 62 | 277 | 5.0 | 7.0 | 0.00 | 0.00 | 0.00 | 61 | 1023.2 |
| 20260503170613 | 63 | 294 | 4.0 | 7.0 | 0.00 | 0.00 | 0.00 | 61 | 1023.3 |
| 20260503150616 | 64 | 312 | 9.0 | 15.0 | 0.00 | 0.00 | 0.00 | 56 | 1024.2 |
| 20260503130518 | 65 | 289 | 9.0 | 16.0 | 0.00 | 0.00 | 0.00 | 56 | 1024.7 |
| 20260503110518 | 64 | 297 | 6.0 | 13.0 | 0.00 | 0.00 | 0.00 | 55 | 1025.1 |
| 20260503081532 | 60 | 337 | 4.0 | 8.0 | 0.00 | 0.00 | 0.00 | 61 | 1026.1 |
| 20260503080522 | 60 | 320 | 4.0 | 8.0 | 0.00 | 0.00 | 0.00 | 63 | 1026.1 |
| 20260503072542 | 57 | 318 | 2.0 | 4.0 | 0.00 | 0.00 | 0.00 | 72 | 1026.1 |
| 20260503071532 | 56 | 323 | 2.0 | 3.0 | 0.00 | 0.00 | 0.00 | 73 | 1026.2 |
| 20260503070522 | 56 | 321 | 3.0 | 6.0 | 0.00 | 0.00 | 0.00 | 76 | 1026.1 |
| 20260503054624 | 52 | 0.0 | 0.0 | 0.00 | 0.00 | 0.00 | 81 | 1025.7 | |
| 20260503053554 | 52 | 0.0 | 0.0 | 0.00 | 0.00 | 0.00 | 79 | 1025.8 | |
| 20260503052604 | 52 | 0.0 | 2.0 | 0.00 | 0.00 | 0.00 | 76 | 1025.8 | |
| 20260503051533 | 52 | 324 | 0.0 | 2.0 | 0.00 | 0.00 | 0.00 | 69 | 1025.7 |
| 20260503050524 | 54 | 341 | 1.0 | 2.0 | 0.00 | 0.00 | 0.00 | 63 | 1025.7 |
| 20260503045615 | 55 | 333 | 5.0 | 7.0 | 0.00 | 0.00 | 0.00 | 60 | 1025.5 |
| 20260503044625 | 52 | 306 | 4.0 | 7.0 | 0.00 | 0.00 | 0.00 | 72 | 1025.5 |
| 20260503043555 | 51 | 335 | 3.0 | 6.0 | 0.00 | 0.00 | 0.00 | 74 | 1025.5 |
| 20260503042545 | 51 | 302 | 3.0 | 4.0 | 0.00 | 0.00 | 0.00 | 74 | 1025.8 |
| 20260503041535 | 51 | 309 | 3.0 | 3.0 | 0.00 | 0.00 | 0.00 | 73 | 1025.7 |
| 20260503040525 | 51 | 293 | 2.0 | 4.0 | 0.00 | 0.00 | 0.00 | 75 | 1025.6 |
| 20260503035515 | 50 | 323 | 2.0 | 3.0 | 0.00 | 0.00 | 0.00 | 80 | 1025.5 |
| 20260503034606 | 51 | 226 | 1.0 | 2.0 | 0.00 | 0.00 | 0.00 | 80 | 1025.4 |
| 20260503033556 | 51 | 326 | 1.0 | 3.0 | 0.00 | 0.00 | 0.00 | 79 | 1025.4 |
| 20260503032546 | 51 | 0.0 | 0.0 | 0.00 | 0.00 | 0.00 | 82 | 1025.2 | |
| 20260503031536 | 51 | 343 | 1.0 | 2.0 | 0.00 | 0.00 | 0.00 | 80 | 1025.4 |
| 20260503030526 | 51 | 291 | 0.0 | 1.0 | 0.00 | 0.00 | 0.00 | 76 | 1025.4 |
| 20260503025536 | 51 | 328 | 1.0 | 3.0 | 0.00 | 0.00 | 0.00 | 75 | 1025.5 |
| 20260503024607 | 51 | 0.0 | 1.0 | 0.00 | 0.00 | 0.00 | 77 | 1025.4 | |
| 20260503023557 | 51 | 337 | 0.0 | 1.0 | 0.00 | 0.00 | 0.00 | 80 | 1025.5 |
| 20260503022547 | 51 | 0.0 | 0.0 | 0.00 | 0.00 | 0.00 | 80 | 1025.7 | |
| 20260503021537 | 51 | 0.0 | 0.0 | 0.00 | 0.00 | 0.00 | 78 | 1025.7 | |
| 20260503020528 | 51 | 0.0 | 0.0 | 0.00 | 0.00 | 0.00 | 78 | 1025.6 | |
| 20260503015517 | 51 | 330 | 0.0 | 1.0 | 0.00 | 0.00 | 0.00 | 79 | 1025.5 |
| 20260503014608 | 51 | 329 | 0.0 | 1.0 | 0.00 | 0.00 | 0.00 | 79 | 1025.7 |
| 20260503013618 | 52 | 0.0 | 1.0 | 0.00 | 0.00 | 0.00 | 78 | 1025.7 | |
| 20260503012629 | 52 | 306 | 1.0 | 2.0 | 0.00 | 0.00 | 0.00 | 78 | 1025.7 |
| 20260503011538 | 51 | 328 | 0.0 | 1.0 | 0.00 | 0.00 | 0.00 | 77 | 1025.8 |
| 20260503010528 | 52 | 0.0 | 0.0 | 0.00 | 0.00 | 0.00 | 76 | 1025.9 | |
| 20260503005519 | 52 | 0.0 | 0.0 | 0.00 | 0.00 | 0.00 | 75 | 1026.1 | |
| 20260503004610 | 53 | 336 | 0.0 | 2.0 | 0.00 | 0.00 | 0.00 | 73 | 1026.2 |
| 20260503003600 | 52 | 316 | 0.0 | 1.0 | 0.00 | 0.00 | 0.00 | 75 | 1026.4 |
| 20260503002610 | 52 | 0.0 | 0.0 | 0.00 | 0.00 | 0.00 | 73 | 1026.4 | |
| 20260503001540 | 52 | 0.0 | 0.0 | 0.00 | 0.00 | 0.00 | 73 | 1026.5 | |
| 20260503000529 | 52 | 0.0 | 0.0 | 0.00 | 0.00 | 0.00 | 73 | 1026.6 | |
| 20260502235519 | 53 | 0.0 | 0.0 | 0.00 | 0.00 | 0.00 | 73 | 1026.5 | |
| 20260502234610 | 53 | 287 | 0.0 | 1.0 | 0.00 | 0.00 | 0.00 | 72 | 1026.8 |
| 20260502233600 | 53 | 313 | 1.0 | 2.0 | 0.00 | 0.00 | 0.00 | 71 | 1026.8 |
| 20260502232550 | 53 | 298 | 2.0 | 3.0 | 0.00 | 0.00 | 0.00 | 68 | 1027.0 |
| 20260502231600 | 53 | 307 | 2.0 | 4.0 | 0.00 | 0.00 | 0.00 | 67 | 1027.1 |
| 20260502230530 | 53 | 267 | 3.0 | 3.0 | 0.00 | 0.00 | 0.00 | 66 | 1027.2 |
| 20260502225541 | 53 | 295 | 3.0 | 6.0 | 0.00 | 0.00 | 0.00 | 64 | 1027.3 |
| 20260502224612 | 54 | 306 | 3.0 | 4.0 | 0.00 | 0.00 | 0.00 | 64 | 1027.3 |
| 20260502223606 | 54 | 319 | 3.0 | 4.0 | 0.00 | 0.00 | 0.00 | 62 | 1027.2 |
| 20260502222554 | 54 | 314 | 2.0 | 3.0 | 0.00 | 0.00 | 0.00 | 59 | 1027.3 |
| 20260502221541 | 54 | 327 | 1.0 | 3.0 | 0.00 | 0.00 | 0.00 | 59 | 1027.3 |
| 20260502220531 | 55 | 297 | 2.0 | 3.0 | 0.00 | 0.00 | 0.00 | 57 | 1027.3 |
| 20260502215521 | 55 | 300 | 2.0 | 4.0 | 0.00 | 0.00 | 0.00 | 55 | 1027.4 |
| 20260502214612 | 55 | 278 | 2.0 | 4.0 | 0.00 | 0.00 | 0.00 | 54 | 1027.4 |
| 20260502213602 | 55 | 303 | 2.0 | 4.0 | 0.00 | 0.00 | 0.00 | 52 | 1027.5 |
| 20260502212552 | 55 | 306 | 3.0 | 6.0 | 0.00 | 0.00 | 0.00 | 50 | 1027.3 |
| 20260502211542 | 55 | 309 | 2.0 | 3.0 | 0.00 | 0.00 | 0.00 | 50 | 1027.3 |